Time,TemperatureF,DewpointF,PressureIn,WindDirection,WindDirectionDegrees,WindSpeedMPH,WindSpeedGustMPH,Humidity,HourlyPrecipIn,Conditions,Clouds,dailyrainin,SoftwareType,DateUTC
2013-11-19 00:04:00,64.7,58.0,29.88,ENE,61,0.0,0.0,79,0.00,,,0.00,Wunderground v.1.13,2013-11-19 06:04:00,
2013-11-19 00:14:00,64.4,57.4,29.88,ENE,61,0.0,0.0,78,0.00,,,0.00,Wunderground v.1.13,2013-11-19 06:14:00,
2013-11-19 00:19:00,64.3,57.3,29.87,ENE,61,0.0,1.0,78,0.00,,,0.00,Wunderground v.1.13,2013-11-19 06:19:00,
2013-11-19 00:24:00,64.2,56.5,29.87,ENE,61,0.0,0.0,76,0.00,,,0.00,Wunderground v.1.13,2013-11-19 06:24:00,
2013-11-19 00:29:00,64.1,56.0,29.88,ENE,61,0.0,0.0,75,0.00,,,0.00,Wunderground v.1.13,2013-11-19 06:29:00,
2013-11-19 00:34:00,64.1,56.0,29.88,ENE,61,0.0,0.0,75,0.00,,,0.00,Wunderground v.1.13,2013-11-19 06:34:00,
2013-11-19 00:39:00,64.0,55.9,29.87,ENE,61,0.0,0.0,75,0.00,,,0.00,Wunderground v.1.13,2013-11-19 06:39:00,
2013-11-19 00:44:00,63.9,55.1,29.87,ENE,61,0.0,0.0,73,0.00,,,0.00,Wunderground v.1.13,2013-11-19 06:44:00,
2013-11-19 00:54:00,63.9,54.3,29.86,ENE,61,0.0,0.0,71,0.00,,,0.00,Wunderground v.1.13,2013-11-19 06:54:00,
2013-11-19 00:59:00,64.0,54.0,29.86,ENE,61,0.0,0.0,70,0.00,,,0.00,Wunderground v.1.13,2013-11-19 06:59:00,
2013-11-19 01:04:00,64.0,53.6,29.86,ENE,61,0.0,0.0,69,0.00,,,0.00,Wunderground v.1.13,2013-11-19 07:04:00,
2013-11-19 01:09:00,64.0,53.2,29.86,ENE,61,0.0,0.0,68,0.00,,,0.00,Wunderground v.1.13,2013-11-19 07:09:00,
2013-11-19 01:14:00,64.0,53.2,29.86,ENE,61,0.0,0.0,68,0.00,,,0.00,Wunderground v.1.13,2013-11-19 07:14:00,
2013-11-19 01:19:00,63.9,52.7,29.86,ENE,61,0.0,0.0,67,0.00,,,0.00,Wunderground v.1.13,2013-11-19 07:19:00,
2013-11-19 01:29:00,63.7,52.5,29.86,ENE,61,0.0,0.0,67,0.00,,,0.00,Wunderground v.1.13,2013-11-19 07:29:00,
2013-11-19 01:34:00,63.5,51.9,29.86,ENE,61,0.0,0.0,66,0.00,,,0.00,Wunderground v.1.13,2013-11-19 07:34:00,
2013-11-19 01:39:00,63.4,51.4,29.87,ENE,61,0.0,0.0,65,0.00,,,0.00,Wunderground v.1.13,2013-11-19 07:39:00,
2013-11-19 01:44:00,63.2,51.6,29.87,ENE,61,0.0,0.0,66,0.00,,,0.00,Wunderground v.1.13,2013-11-19 07:44:00,
2013-11-19 01:49:00,63.1,51.6,29.87,ENE,61,0.0,0.0,66,0.00,,,0.00,Wunderground v.1.13,2013-11-19 07:49:00,
2013-11-19 01:54:00,62.9,51.4,29.87,ENE,61,0.0,0.0,66,0.00,,,0.00,Wunderground v.1.13,2013-11-19 07:54:00,
2013-11-19 01:59:00,62.6,51.1,29.86,ENE,61,0.0,0.0,66,0.00,,,0.00,Wunderground v.1.13,2013-11-19 07:59:00,
2013-11-19 02:05:00,62.2,51.1,29.86,ENE,61,0.0,0.0,67,0.00,,,0.00,Wunderground v.1.13,2013-11-19 08:05:00,
2013-11-19 02:14:00,61.6,50.1,29.86,ENE,61,0.0,1.0,66,0.00,,,0.00,Wunderground v.1.13,2013-11-19 08:14:00,
2013-11-19 02:24:00,61.2,50.2,29.86,ENE,61,0.0,0.0,67,0.00,,,0.00,Wunderground v.1.13,2013-11-19 08:24:00,
2013-11-19 02:29:00,61.1,50.1,29.86,ENE,61,0.0,0.0,67,0.00,,,0.00,Wunderground v.1.13,2013-11-19 08:29:00,
2013-11-19 02:34:00,60.9,49.9,29.86,ENE,61,0.0,0.0,67,0.00,,,0.00,Wunderground v.1.13,2013-11-19 08:34:00,
2013-11-19 02:39:00,60.7,49.7,29.86,ENE,61,0.0,0.0,67,0.00,,,0.00,Wunderground v.1.13,2013-11-19 08:39:00,
2013-11-19 02:49:00,60.2,49.6,29.86,ENE,61,0.0,0.0,68,0.00,,,0.00,Wunderground v.1.13,2013-11-19 08:49:00,
2013-11-19 02:59:00,59.7,49.1,29.86,ENE,61,0.0,0.0,68,0.00,,,0.00,Wunderground v.1.13,2013-11-19 08:59:00,
2013-11-19 03:04:00,59.4,48.8,29.86,ENE,61,0.0,0.0,68,0.00,,,0.00,Wunderground v.1.13,2013-11-19 09:04:00,
2013-11-19 03:09:00,59.1,48.9,29.86,ENE,61,0.0,0.0,69,0.00,,,0.00,Wunderground v.1.13,2013-11-19 09:09:00,
2013-11-19 03:14:00,58.8,49.0,29.86,ENE,61,0.0,0.0,70,0.00,,,0.00,Wunderground v.1.13,2013-11-19 09:14:00,
2013-11-19 03:19:00,58.5,49.1,29.87,ENE,61,0.0,0.0,71,0.00,,,0.00,Wunderground v.1.13,2013-11-19 09:19:00,
2013-11-19 03:29:00,58.0,49.0,29.87,ENE,61,0.0,0.0,72,0.00,,,0.00,Wunderground v.1.13,2013-11-19 09:29:00,
2013-11-19 03:34:00,57.7,49.1,29.86,ENE,61,0.0,0.0,73,0.00,,,0.00,Wunderground v.1.13,2013-11-19 09:34:00,
2013-11-19 03:39:00,57.4,49.2,29.86,ENE,61,0.0,0.0,74,0.00,,,0.00,Wunderground v.1.13,2013-11-19 09:39:00,
2013-11-19 03:44:00,57.2,49.0,29.87,ENE,61,0.0,0.0,74,0.00,,,0.00,Wunderground v.1.13,2013-11-19 09:44:00,
2013-11-19 03:49:00,57.0,49.2,29.87,ENE,61,0.0,0.0,75,0.00,,,0.00,Wunderground v.1.13,2013-11-19 09:49:00,
2013-11-19 03:54:00,56.8,49.0,29.87,ENE,61,0.0,0.0,75,0.00,,,0.00,Wunderground v.1.13,2013-11-19 09:54:00,
2013-11-19 03:59:00,56.6,48.8,29.86,ENE,61,0.0,0.0,75,0.00,,,0.00,Wunderground v.1.13,2013-11-19 09:59:00,
2013-11-19 04:05:00,56.4,48.9,29.86,ENE,61,0.0,0.0,76,0.00,,,0.00,Wunderground v.1.13,2013-11-19 10:05:00,
2013-11-19 04:14:00,56.0,48.9,29.87,ENE,61,0.0,0.0,77,0.00,,,0.00,Wunderground v.1.13,2013-11-19 10:14:00,
2013-11-19 04:19:00,55.9,49.1,29.86,ENE,61,0.0,0.0,78,0.00,,,0.00,Wunderground v.1.13,2013-11-19 10:19:00,
2013-11-19 04:24:00,55.7,48.9,29.86,ENE,61,0.0,0.0,78,0.00,,,0.00,Wunderground v.1.13,2013-11-19 10:24:00,
2013-11-19 04:34:00,55.3,48.6,29.87,ENE,61,0.0,0.0,78,0.00,,,0.00,Wunderground v.1.13,2013-11-19 10:34:00,
2013-11-19 04:39:00,55.2,48.8,29.87,ENE,61,0.0,0.0,79,0.00,,,0.00,Wunderground v.1.13,2013-11-19 10:39:00,
2013-11-19 04:44:00,55.1,48.7,29.87,ENE,61,0.0,0.0,79,0.00,,,0.00,Wunderground v.1.13,2013-11-19 10:44:00,
2013-11-19 04:49:00,55.0,48.6,29.87,ENE,61,0.0,0.0,79,0.00,,,0.00,Wunderground v.1.13,2013-11-19 10:49:00,
2013-11-19 04:54:00,54.9,48.5,29.87,ENE,61,0.0,0.0,79,0.00,,,0.00,Wunderground v.1.13,2013-11-19 10:54:00,
2013-11-19 04:59:00,54.8,48.4,29.86,ENE,61,0.0,0.0,79,0.00,,,0.00,Wunderground v.1.13,2013-11-19 10:59:00,
2013-11-19 05:04:00,54.8,48.1,29.86,ENE,61,0.0,0.0,78,0.00,,,0.00,Wunderground v.1.13,2013-11-19 11:04:00,
2013-11-19 05:09:00,54.8,48.1,29.86,ENE,61,0.0,0.0,78,0.00,,,0.00,Wunderground v.1.13,2013-11-19 11:09:00,
2013-11-19 05:14:00,54.7,48.3,29.87,ENE,61,0.0,0.0,79,0.00,,,0.00,Wunderground v.1.13,2013-11-19 11:14:00,
2013-11-19 05:19:00,54.7,48.3,29.87,ENE,61,0.0,0.0,79,0.00,,,0.00,Wunderground v.1.13,2013-11-19 11:19:00,
2013-11-19 05:24:00,54.6,48.2,29.87,ENE,61,0.0,0.0,79,0.00,,,0.00,Wunderground v.1.13,2013-11-19 11:24:00,
2013-11-19 05:29:00,54.5,48.1,29.87,ENE,61,0.0,0.0,79,0.00,,,0.00,Wunderground v.1.13,2013-11-19 11:29:00,
2013-11-19 05:34:00,54.4,48.0,29.87,ENE,61,0.0,0.0,79,0.00,,,0.00,Wunderground v.1.13,2013-11-19 11:34:00,
2013-11-19 05:39:00,54.2,47.8,29.87,ENE,61,0.0,0.0,79,0.00,,,0.00,Wunderground v.1.13,2013-11-19 11:39:00,
2013-11-19 05:49:00,53.7,47.3,29.88,ENE,61,0.0,0.0,79,0.00,,,0.00,Wunderground v.1.13,2013-11-19 11:49:00,
2013-11-19 05:59:00,53.3,47.3,29.88,ENE,61,0.0,0.0,80,0.00,,,0.00,Wunderground v.1.13,2013-11-19 11:59:00,
2013-11-19 06:04:00,53.1,47.1,29.88,ENE,61,0.0,0.0,80,0.00,,,0.00,Wunderground v.1.13,2013-11-19 12:04:00,
2013-11-19 06:14:00,52.9,47.2,29.88,ENE,61,0.0,0.0,81,0.00,,,0.00,Wunderground v.1.13,2013-11-19 12:14:00,
2013-11-19 06:19:00,52.8,47.1,29.88,ENE,61,0.0,0.0,81,0.00,,,0.00,Wunderground v.1.13,2013-11-19 12:19:00,
2013-11-19 06:29:00,52.6,46.9,29.88,ENE,61,0.0,0.0,81,0.00,,,0.00,Wunderground v.1.13,2013-11-19 12:29:00,
2013-11-19 06:39:00,52.3,47.0,29.89,ENE,61,0.0,0.0,82,0.00,,,0.00,Wunderground v.1.13,2013-11-19 12:39:00,
2013-11-19 06:49:00,52.3,46.6,29.89,ENE,61,0.0,0.0,81,0.00,,,0.00,Wunderground v.1.13,2013-11-19 12:49:00,
2013-11-19 06:54:00,52.4,46.7,29.89,ENE,61,0.0,0.0,81,0.00,,,0.00,Wunderground v.1.13,2013-11-19 12:54:00,
2013-11-19 06:59:00,52.7,46.7,29.90,ENE,61,0.0,0.0,80,0.00,,,0.00,Wunderground v.1.13,2013-11-19 12:59:00,
2013-11-19 07:04:00,52.9,46.6,29.90,ENE,61,0.0,2.0,79,0.00,,,0.00,Wunderground v.1.13,2013-11-19 13:04:00,
2013-11-19 07:09:00,53.2,46.9,29.90,ENE,61,0.0,0.0,79,0.00,,,0.00,Wunderground v.1.13,2013-11-19 13:09:00,
2013-11-19 07:14:00,53.4,46.7,29.90,ENE,60,0.0,0.0,78,0.00,,,0.00,Wunderground v.1.13,2013-11-19 13:14:00,
2013-11-19 07:24:00,54.0,47.0,29.91,ENE,59,1.0,1.0,77,0.00,,,0.00,Wunderground v.1.13,2013-11-19 13:24:00,
2013-11-19 07:29:00,54.2,46.8,29.91,ENE,59,0.0,0.0,76,0.00,,,0.00,Wunderground v.1.13,2013-11-19 13:29:00,
2013-11-19 07:34:00,54.4,47.0,29.91,ENE,59,0.0,0.0,76,0.00,,,0.00,Wunderground v.1.13,2013-11-19 13:34:00,
2013-11-19 07:44:00,55.2,47.1,29.91,ENE,57,0.0,0.0,74,0.00,,,0.00,Wunderground v.1.13,2013-11-19 13:44:00,
2013-11-19 07:49:00,55.5,47.3,29.92,NE,55,0.0,1.0,74,0.00,,,0.00,Wunderground v.1.13,2013-11-19 13:49:00,
2013-11-19 07:54:00,55.7,47.2,29.92,NE,56,0.0,0.0,73,0.00,,,0.00,Wunderground v.1.13,2013-11-19 13:54:00,
2013-11-19 07:59:00,56.0,47.5,29.92,NE,51,1.0,1.0,73,0.00,,,0.00,Wunderground v.1.13,2013-11-19 13:59:00,
2013-11-19 08:05:00,56.3,47.4,29.92,NE,49,1.0,1.0,72,0.00,,,0.00,Wunderground v.1.13,2013-11-19 14:05:00,
2013-11-19 08:14:00,57.3,47.6,29.93,NE,49,2.0,2.0,70,0.00,,,0.00,Wunderground v.1.13,2013-11-19 14:14:00,
2013-11-19 08:19:00,57.7,47.2,29.93,NE,46,2.0,2.0,68,0.00,,,0.00,Wunderground v.1.13,2013-11-19 14:19:00,
2013-11-19 08:24:00,58.0,47.5,29.93,NE,54,2.0,2.0,68,0.00,,,0.00,Wunderground v.1.13,2013-11-19 14:24:00,
2013-11-19 08:29:00,58.2,46.9,29.93,ENE,58,2.0,2.0,66,0.00,,,0.00,Wunderground v.1.13,2013-11-19 14:29:00,
2013-11-19 08:34:00,58.4,47.1,29.93,NE,54,2.0,2.0,66,0.00,,,0.00,Wunderground v.1.13,2013-11-19 14:34:00,
2013-11-19 08:39:00,58.9,47.2,29.93,NE,55,2.0,2.0,65,0.00,,,0.00,Wunderground v.1.13,2013-11-19 14:39:00,
2013-11-19 08:49:00,59.7,47.9,29.93,NE,53,2.0,7.0,65,0.00,,,0.00,Wunderground v.1.13,2013-11-19 14:49:00,
2013-11-19 08:54:00,60.0,46.9,29.93,NE,44,2.0,3.0,62,0.00,,,0.00,Wunderground v.1.13,2013-11-19 14:54:00,
2013-11-19 08:59:00,60.0,46.9,29.93,NE,47,3.0,3.0,62,0.00,,,0.00,Wunderground v.1.13,2013-11-19 14:59:00,
2013-11-19 09:04:00,59.8,47.2,29.94,NE,50,3.0,3.0,63,0.00,,,0.00,Wunderground v.1.13,2013-11-19 15:04:00,
2013-11-19 09:09:00,59.8,47.2,29.93,NE,56,3.0,6.0,63,0.00,,,0.00,Wunderground v.1.13,2013-11-19 15:09:00,
2013-11-19 09:19:00,60.3,47.6,29.93,NE,53,3.0,3.0,63,0.00,,,0.00,Wunderground v.1.13,2013-11-19 15:19:00,
2013-11-19 09:24:00,60.6,47.9,29.93,NE,48,2.0,2.0,63,0.00,,,0.00,Wunderground v.1.13,2013-11-19 15:24:00,
2013-11-19 09:29:00,60.9,47.4,29.93,ENE,65,3.0,3.0,61,0.00,,,0.00,Wunderground v.1.13,2013-11-19 15:29:00,
2013-11-19 09:34:00,61.1,46.2,29.93,NE,55,3.0,3.0,58,0.00,,,0.00,Wunderground v.1.13,2013-11-19 15:34:00,
2013-11-19 09:39:00,61.5,46.1,29.93,ENE,57,3.0,4.0,57,0.00,,,0.00,Wunderground v.1.13,2013-11-19 15:39:00,
2013-11-19 09:44:00,61.6,45.7,29.93,ENE,65,3.0,3.0,56,0.00,,,0.00,Wunderground v.1.13,2013-11-19 15:44:00,
2013-11-19 09:49:00,62.0,46.1,29.93,NE,46,2.0,2.0,56,0.00,,,0.00,Wunderground v.1.13,2013-11-19 15:49:00,
2013-11-19 09:54:00,62.4,47.0,29.93,ENE,65,2.0,2.0,57,0.00,,,0.00,Wunderground v.1.13,2013-11-19 15:54:00,
2013-11-19 09:59:00,62.2,46.3,29.93,ENE,62,3.0,3.0,56,0.00,,,0.00,Wunderground v.1.13,2013-11-19 15:59:00,
2013-11-19 10:05:00,61.9,46.0,29.93,ENE,63,2.0,2.0,56,0.00,,,0.00,Wunderground v.1.13,2013-11-19 16:05:00,
2013-11-19 10:14:00,61.9,46.0,29.93,ENE,60,2.0,4.0,56,0.00,,,0.00,Wunderground v.1.13,2013-11-19 16:14:00,
2013-11-19 10:19:00,62.1,46.2,29.93,ENE,57,2.0,2.0,56,0.00,,,0.00,Wunderground v.1.13,2013-11-19 16:19:00,
2013-11-19 10:24:00,62.5,47.1,29.93,ENE,60,1.0,4.0,57,0.00,,,0.00,Wunderground v.1.13,2013-11-19 16:24:00,
2013-11-19 10:29:00,62.9,47.4,29.93,ENE,60,1.0,1.0,57,0.00,,,0.00,Wunderground v.1.13,2013-11-19 16:29:00,
2013-11-19 10:34:00,62.9,46.5,29.93,ENE,61,2.0,2.0,55,0.00,,,0.00,Wunderground v.1.13,2013-11-19 16:34:00,
2013-11-19 10:39:00,63.0,47.5,29.92,ENE,62,1.0,1.0,57,0.00,,,0.00,Wunderground v.1.13,2013-11-19 16:39:00,
2013-11-19 10:49:00,63.9,47.4,29.92,ENE,64,2.0,2.0,55,0.00,,,0.00,Wunderground v.1.13,2013-11-19 16:49:00,
2013-11-19 10:54:00,63.8,46.3,29.92,ENE,66,3.0,3.0,53,0.00,,,0.00,Wunderground v.1.13,2013-11-19 16:54:00,
2013-11-19 10:59:00,64.2,47.2,29.91,NE,55,3.0,3.0,54,0.00,,,0.00,Wunderground v.1.13,2013-11-19 16:59:00,
2013-11-19 11:04:00,64.7,48.2,29.91,NE,55,2.0,2.0,55,0.00,,,0.00,Wunderground v.1.13,2013-11-19 17:04:00,
2013-11-19 11:14:00,65.2,48.6,29.90,ENE,60,2.0,2.0,55,0.00,,,0.00,Wunderground v.1.13,2013-11-19 17:14:00,
2013-11-19 11:19:00,65.1,47.0,29.90,NE,56,3.0,6.0,52,0.00,,,0.00,Wunderground v.1.13,2013-11-19 17:19:00,
2013-11-19 11:24:00,65.0,46.9,29.90,NE,56,3.0,7.0,52,0.00,,,0.00,Wunderground v.1.13,2013-11-19 17:24:00,
2013-11-19 11:34:00,65.5,48.4,29.89,ENE,59,3.0,4.0,54,0.00,,,0.00,Wunderground v.1.13,2013-11-19 17:34:00,
2013-11-19 11:39:00,66.0,48.4,29.89,ENE,60,2.0,3.0,53,0.00,,,0.00,Wunderground v.1.13,2013-11-19 17:39:00,
2013-11-19 11:44:00,66.4,48.2,29.89,ENE,67,1.0,1.0,52,0.00,,,0.00,Wunderground v.1.13,2013-11-19 17:44:00,
2013-11-19 11:49:00,66.7,48.5,29.89,ENE,67,1.0,1.0,52,0.00,,,0.00,Wunderground v.1.13,2013-11-19 17:49:00,
2013-11-19 11:59:00,67.4,49.2,29.88,ENE,61,1.0,2.0,52,0.00,,,0.00,Wunderground v.1.13,2013-11-19 17:59:00,
2013-11-19 12:04:00,66.4,48.2,29.88,ENE,63,2.0,2.0,52,0.00,,,0.00,Wunderground v.1.13,2013-11-19 18:04:00,
2013-11-19 12:14:00,67.6,49.9,29.87,ENE,61,1.0,1.0,53,0.00,,,0.00,Wunderground v.1.13,2013-11-19 18:14:00,
2013-11-19 12:24:00,67.7,48.9,29.86,ENE,72,2.0,2.0,51,0.00,,,0.00,Wunderground v.1.13,2013-11-19 18:24:00,
2013-11-19 12:29:00,67.8,50.0,29.86,ENE,72,1.0,2.0,53,0.00,,,0.00,Wunderground v.1.13,2013-11-19 18:29:00,
2013-11-19 12:34:00,68.3,51.0,29.86,ENE,72,0.0,0.0,54,0.00,,,0.00,Wunderground v.1.13,2013-11-19 18:34:00,
2013-11-19 12:44:00,69.1,50.7,29.85,ENE,77,1.0,1.0,52,0.00,,,0.00,Wunderground v.1.13,2013-11-19 18:44:00,
2013-11-19 12:49:00,68.5,49.7,29.85,ENE,61,1.0,1.0,51,0.00,,,0.00,Wunderground v.1.13,2013-11-19 18:49:00,
2013-11-19 12:54:00,68.6,49.2,29.84,ENE,64,1.0,1.0,50,0.00,,,0.00,Wunderground v.1.13,2013-11-19 18:54:00,
2013-11-19 12:59:00,68.8,50.5,29.84,ENE,64,1.0,1.0,52,0.00,,,0.00,Wunderground v.1.13,2013-11-19 18:59:00,
2013-11-19 13:04:00,69.0,50.6,29.84,ENE,65,0.0,0.0,52,0.00,,,0.00,Wunderground v.1.13,2013-11-19 19:04:00,
2013-11-19 13:14:00,70.0,51.6,29.84,ENE,65,1.0,1.0,52,0.00,,,0.00,Wunderground v.1.13,2013-11-19 19:14:00,
2013-11-19 13:19:00,69.5,51.1,29.83,ENE,74,1.0,1.0,52,0.00,,,0.00,Wunderground v.1.13,2013-11-19 19:19:00,
2013-11-19 13:24:00,69.4,51.0,29.83,East,84,2.0,2.0,52,0.00,,,0.00,Wunderground v.1.13,2013-11-19 19:24:00,
2013-11-19 13:29:00,69.3,51.4,29.82,East,82,1.0,2.0,53,0.00,,,0.00,Wunderground v.1.13,2013-11-19 19:29:00,
2013-11-19 13:34:00,69.6,51.7,29.82,ENE,71,1.0,3.0,53,0.00,,,0.00,Wunderground v.1.13,2013-11-19 19:34:00,
2013-11-19 13:44:00,69.0,52.2,29.82,ENE,69,1.0,1.0,55,0.00,,,0.00,Wunderground v.1.13,2013-11-19 19:44:00,
2013-11-19 13:54:00,69.8,52.4,29.82,ENE,67,1.0,1.0,54,0.00,,,0.00,Wunderground v.1.13,2013-11-19 19:54:00,
2013-11-19 14:04:00,70.4,52.4,29.81,ENE,68,1.0,1.0,53,0.00,,,0.00,Wunderground v.1.13,2013-11-19 20:04:00,
2013-11-19 14:14:00,70.9,53.4,29.81,ENE,67,1.0,1.0,54,0.00,,,0.00,Wunderground v.1.13,2013-11-19 20:14:00,
2013-11-19 14:19:00,70.5,52.5,29.81,ENE,60,1.0,1.0,53,0.00,,,0.00,Wunderground v.1.13,2013-11-19 20:19:00,
2013-11-19 14:29:00,69.8,52.9,29.81,ENE,61,1.0,1.0,55,0.00,,,0.00,Wunderground v.1.13,2013-11-19 20:29:00,
2013-11-19 14:34:00,69.8,52.4,29.81,ENE,61,1.0,1.0,54,0.00,,,0.00,Wunderground v.1.13,2013-11-19 20:34:00,
2013-11-19 14:39:00,69.7,53.3,29.80,ENE,59,1.0,1.0,56,0.00,,,0.00,Wunderground v.1.13,2013-11-19 20:39:00,
2013-11-19 14:44:00,69.8,52.4,29.80,ENE,61,1.0,1.0,54,0.00,,,0.00,Wunderground v.1.13,2013-11-19 20:44:00,
2013-11-19 14:54:00,69.9,53.0,29.80,ENE,57,2.0,4.0,55,0.00,,,0.00,Wunderground v.1.13,2013-11-19 20:54:00,
2013-11-19 14:59:00,70.0,53.6,29.80,ENE,57,2.0,2.0,56,0.00,,,0.00,Wunderground v.1.13,2013-11-19 20:59:00,
2013-11-19 15:04:00,69.5,52.6,29.80,ENE,59,1.0,1.0,55,0.00,,,0.00,Wunderground v.1.13,2013-11-19 21:04:00,
2013-11-19 15:14:00,70.2,53.3,29.80,ENE,59,0.0,0.0,55,0.00,,,0.00,Wunderground v.1.13,2013-11-19 21:14:00,
2013-11-19 15:24:00,69.7,52.8,29.80,ENE,59,1.0,1.0,55,0.00,,,0.00,Wunderground v.1.13,2013-11-19 21:24:00,
2013-11-19 15:29:00,69.8,53.4,29.80,ENE,59,1.0,1.0,56,0.00,,,0.00,Wunderground v.1.13,2013-11-19 21:29:00,
2013-11-19 15:34:00,70.0,54.5,29.80,ENE,59,1.0,1.0,58,0.00,,,0.00,Wunderground v.1.13,2013-11-19 21:34:00,
2013-11-19 15:39:00,69.7,53.8,29.80,ENE,60,1.0,1.0,57,0.00,,,0.00,Wunderground v.1.13,2013-11-19 21:39:00,
2013-11-19 15:44:00,69.7,53.8,29.79,ENE,60,0.0,0.0,57,0.00,,,0.00,Wunderground v.1.13,2013-11-19 21:44:00,
2013-11-19 15:49:00,70.1,54.2,29.80,ENE,60,0.0,1.0,57,0.00,,,0.00,Wunderground v.1.13,2013-11-19 21:49:00,
2013-11-19 15:59:00,69.2,54.7,29.79,ENE,59,1.0,1.0,60,0.00,,,0.00,Wunderground v.1.13,2013-11-19 21:59:00,
2013-11-19 16:05:00,69.0,54.1,29.79,ENE,60,1.0,1.0,59,0.00,,,0.00,Wunderground v.1.13,2013-11-19 22:05:00,
2013-11-19 16:14:00,68.4,54.4,29.80,ENE,61,0.0,0.0,61,0.00,,,0.00,Wunderground v.1.13,2013-11-19 22:14:00,
2013-11-19 16:24:00,68.9,54.4,29.80,ENE,61,0.0,0.0,60,0.00,,,0.00,Wunderground v.1.13,2013-11-19 22:24:00,
2013-11-19 16:29:00,68.8,54.3,29.80,ENE,61,0.0,0.0,60,0.00,,,0.00,Wunderground v.1.13,2013-11-19 22:29:00,
2013-11-19 16:34:00,68.7,54.3,29.80,ENE,61,0.0,0.0,60,0.00,,,0.00,Wunderground v.1.13,2013-11-19 22:34:00,
2013-11-19 16:39:00,68.4,54.4,29.80,ENE,61,0.0,0.0,61,0.00,,,0.00,Wunderground v.1.13,2013-11-19 22:39:00,
2013-11-19 16:44:00,68.1,54.6,29.80,ENE,61,0.0,0.0,62,0.00,,,0.00,Wunderground v.1.13,2013-11-19 22:44:00,
2013-11-19 16:49:00,67.8,54.3,29.80,ENE,61,0.0,0.0,62,0.00,,,0.00,Wunderground v.1.13,2013-11-19 22:49:00,
2013-11-19 16:59:00,67.4,54.4,29.80,ENE,61,0.0,3.0,63,0.00,,,0.00,Wunderground v.1.13,2013-11-19 22:59:00,
2013-11-19 17:04:00,67.1,54.5,29.80,ENE,61,0.0,0.0,64,0.00,,,0.00,Wunderground v.1.13,2013-11-19 23:04:00,
2013-11-19 17:09:00,66.8,54.2,29.80,ENE,61,0.0,0.0,64,0.00,,,0.00,Wunderground v.1.13,2013-11-19 23:09:00,
2013-11-19 17:19:00,66.5,54.8,29.80,ENE,61,0.0,0.0,66,0.00,,,0.00,Wunderground v.1.13,2013-11-19 23:19:00,
2013-11-19 17:24:00,66.4,55.1,29.80,ENE,61,0.0,1.0,67,0.00,,,0.00,Wunderground v.1.13,2013-11-19 23:24:00,
2013-11-19 17:29:00,66.3,54.2,29.80,ENE,61,0.0,0.0,65,0.00,,,0.00,Wunderground v.1.13,2013-11-19 23:29:00,
2013-11-19 17:34:00,66.2,54.1,29.80,ENE,61,0.0,0.0,65,0.00,,,0.00,Wunderground v.1.13,2013-11-19 23:34:00,
2013-11-19 17:39:00,66.0,54.3,29.80,ENE,61,0.0,0.0,66,0.00,,,0.00,Wunderground v.1.13,2013-11-19 23:39:00,
2013-11-19 17:44:00,65.8,54.1,29.80,ENE,61,0.0,2.0,66,0.00,,,0.00,Wunderground v.1.13,2013-11-19 23:44:00,
2013-11-19 17:49:00,65.6,54.3,29.80,ENE,61,0.0,0.0,67,0.00,,,0.00,Wunderground v.1.13,2013-11-19 23:49:00,
2013-11-19 17:54:00,65.4,54.6,29.80,ENE,61,0.0,0.0,68,0.00,,,0.00,Wunderground v.1.13,2013-11-19 23:54:00,
2013-11-19 17:59:00,65.3,54.5,29.80,ENE,61,0.0,0.0,68,0.00,,,0.00,Wunderground v.1.13,2013-11-19 23:59:00,
2013-11-19 18:05:00,65.1,54.7,29.80,ENE,61,0.0,1.0,69,0.00,,,0.00,Wunderground v.1.13,2013-11-20 00:05:00,
2013-11-19 18:14:00,64.8,54.4,29.80,ENE,61,0.0,0.0,69,0.00,,,0.00,Wunderground v.1.13,2013-11-20 00:14:00,
2013-11-19 18:24:00,64.5,54.1,29.80,ENE,61,0.0,0.0,69,0.00,,,0.00,Wunderground v.1.13,2013-11-20 00:24:00,
2013-11-19 18:34:00,64.5,53.7,29.81,ENE,61,0.0,0.0,68,0.00,,,0.00,Wunderground v.1.13,2013-11-20 00:34:00,
2013-11-19 18:39:00,64.5,53.7,29.81,ENE,61,0.0,0.0,68,0.00,,,0.00,Wunderground v.1.13,2013-11-20 00:39:00,
2013-11-19 18:49:00,64.6,53.8,29.81,ENE,61,0.0,0.0,68,0.00,,,0.00,Wunderground v.1.13,2013-11-20 00:49:00,
2013-11-19 18:59:00,64.5,53.7,29.81,ENE,61,0.0,0.0,68,0.00,,,0.00,Wunderground v.1.13,2013-11-20 00:59:00,
2013-11-19 19:04:00,64.4,53.6,29.81,ENE,61,0.0,0.0,68,0.00,,,0.00,Wunderground v.1.13,2013-11-20 01:04:00,
2013-11-19 19:09:00,64.3,53.9,29.81,ENE,61,0.0,0.0,69,0.00,,,0.00,Wunderground v.1.13,2013-11-20 01:09:00,
2013-11-19 19:14:00,64.2,53.8,29.81,ENE,61,0.0,0.0,69,0.00,,,0.00,Wunderground v.1.13,2013-11-20 01:14:00,
2013-11-19 19:19:00,64.1,53.7,29.81,ENE,61,0.0,0.0,69,0.00,,,0.00,Wunderground v.1.13,2013-11-20 01:19:00,
2013-11-19 19:24:00,63.9,53.5,29.81,ENE,61,0.0,0.0,69,0.00,,,0.00,Wunderground v.1.13,2013-11-20 01:24:00,
2013-11-19 19:29:00,63.8,53.8,29.81,ENE,61,0.0,0.0,70,0.00,,,0.00,Wunderground v.1.13,2013-11-20 01:29:00,
2013-11-19 19:34:00,63.6,54.0,29.81,ENE,61,0.0,0.0,71,0.00,,,0.00,Wunderground v.1.13,2013-11-20 01:34:00,
2013-11-19 19:44:00,63.4,54.2,29.81,ENE,61,0.0,0.0,72,0.00,,,0.00,Wunderground v.1.13,2013-11-20 01:44:00,
2013-11-19 19:54:00,63.5,54.3,29.81,ENE,61,0.0,0.0,72,0.00,,,0.00,Wunderground v.1.13,2013-11-20 01:54:00,
2013-11-19 19:59:00,63.6,54.0,29.81,ENE,61,0.0,0.0,71,0.00,,,0.00,Wunderground v.1.13,2013-11-20 01:59:00,
2013-11-19 20:05:00,63.7,54.1,29.81,ENE,61,0.0,0.0,71,0.00,,,0.00,Wunderground v.1.13,2013-11-20 02:05:00,
2013-11-19 20:14:00,63.7,54.1,29.81,ENE,61,0.0,0.0,71,0.00,,,0.00,Wunderground v.1.13,2013-11-20 02:14:00,
2013-11-19 20:19:00,63.7,54.1,29.81,ENE,61,0.0,0.0,71,0.00,,,0.00,Wunderground v.1.13,2013-11-20 02:19:00,
2013-11-19 20:24:00,63.8,54.2,29.81,ENE,61,0.0,0.0,71,0.00,,,0.00,Wunderground v.1.13,2013-11-20 02:24:00,
2013-11-19 20:29:00,63.7,54.1,29.81,ENE,61,0.0,0.0,71,0.00,,,0.00,Wunderground v.1.13,2013-11-20 02:29:00,
2013-11-19 20:39:00,63.7,54.1,29.81,ENE,61,0.0,0.0,71,0.00,,,0.00,Wunderground v.1.13,2013-11-20 02:39:00,
2013-11-19 20:44:00,63.6,54.0,29.81,ENE,61,0.0,0.0,71,0.00,,,0.00,Wunderground v.1.13,2013-11-20 02:44:00,
2013-11-19 20:54:00,63.5,54.3,29.81,ENE,61,0.0,0.0,72,0.00,,,0.00,Wunderground v.1.13,2013-11-20 02:54:00,
2013-11-19 20:59:00,63.5,54.3,29.81,ENE,61,0.0,0.0,72,0.00,,,0.00,Wunderground v.1.13,2013-11-20 02:59:00,
2013-11-19 21:04:00,63.5,54.3,29.81,ENE,61,0.0,0.0,72,0.00,,,0.00,Wunderground v.1.13,2013-11-20 03:04:00,
2013-11-19 21:09:00,63.5,54.3,29.81,ENE,61,0.0,0.0,72,0.00,,,0.00,Wunderground v.1.13,2013-11-20 03:09:00,
2013-11-19 21:19:00,63.6,54.4,29.81,ENE,61,0.0,0.0,72,0.00,,,0.00,Wunderground v.1.13,2013-11-20 03:19:00,
2013-11-19 21:24:00,63.6,54.4,29.81,ENE,61,0.0,0.0,72,0.00,,,0.00,Wunderground v.1.13,2013-11-20 03:24:00,
2013-11-19 21:29:00,63.6,54.4,29.81,ENE,61,0.0,0.0,72,0.00,,,0.00,Wunderground v.1.13,2013-11-20 03:29:00,
2013-11-19 21:34:00,63.7,54.5,29.82,ENE,61,0.0,0.0,72,0.00,,,0.00,Wunderground v.1.13,2013-11-20 03:34:00,
2013-11-19 21:39:00,63.6,54.4,29.81,ENE,61,0.0,0.0,72,0.00,,,0.00,Wunderground v.1.13,2013-11-20 03:39:00,
2013-11-19 21:44:00,63.6,54.4,29.81,ENE,61,0.0,0.0,72,0.00,,,0.00,Wunderground v.1.13,2013-11-20 03:44:00,
2013-11-19 21:49:00,63.6,54.8,29.82,ENE,61,0.0,0.0,73,0.00,,,0.00,Wunderground v.1.13,2013-11-20 03:49:00,
2013-11-19 21:59:00,63.5,54.7,29.82,ENE,61,0.0,0.0,73,0.00,,,0.00,Wunderground v.1.13,2013-11-20 03:59:00,
2013-11-19 22:04:00,63.5,55.1,29.82,ENE,61,0.0,0.0,74,0.00,,,0.00,Wunderground v.1.13,2013-11-20 04:04:00,
2013-11-19 22:14:00,63.4,55.0,29.82,ENE,61,0.0,0.0,74,0.00,,,0.00,Wunderground v.1.13,2013-11-20 04:14:00,
2013-11-19 22:19:00,63.4,55.0,29.82,ENE,61,0.0,0.0,74,0.00,,,0.00,Wunderground v.1.13,2013-11-20 04:19:00,
2013-11-19 22:24:00,63.3,55.2,29.82,ENE,61,0.0,0.0,75,0.00,,,0.00,Wunderground v.1.13,2013-11-20 04:24:00,
2013-11-19 22:29:00,63.2,55.1,29.81,ENE,61,0.0,0.0,75,0.00,,,0.00,Wunderground v.1.13,2013-11-20 04:29:00,
2013-11-19 22:39:00,63.1,55.4,29.82,ENE,61,0.0,0.0,76,0.00,,,0.00,Wunderground v.1.13,2013-11-20 04:39:00,
2013-11-19 22:44:00,63.0,55.3,29.82,ENE,61,0.0,0.0,76,0.00,,,0.00,Wunderground v.1.13,2013-11-20 04:44:00,
2013-11-19 22:49:00,62.9,55.2,29.82,ENE,61,0.0,0.0,76,0.00,,,0.00,Wunderground v.1.13,2013-11-20 04:49:00,
2013-11-19 22:59:00,62.6,54.9,29.82,ENE,61,0.0,0.0,76,0.00,,,0.00,Wunderground v.1.13,2013-11-20 04:59:00,
2013-11-19 23:04:00,62.5,54.8,29.82,ENE,61,0.0,0.0,76,0.00,,,0.00,Wunderground v.1.13,2013-11-20 05:04:00,
2013-11-19 23:09:00,62.3,55.0,29.82,ENE,61,0.0,0.0,77,0.00,,,0.00,Wunderground v.1.13,2013-11-20 05:09:00,
2013-11-19 23:14:00,62.1,54.8,29.82,ENE,61,0.0,0.0,77,0.00,,,0.00,Wunderground v.1.13,2013-11-20 05:14:00,
2013-11-19 23:19:00,61.8,54.9,29.82,ENE,61,0.0,0.0,78,0.00,,,0.00,Wunderground v.1.13,2013-11-20 05:19:00,
2013-11-19 23:24:00,61.5,54.6,29.82,ENE,61,0.0,0.0,78,0.00,,,0.00,Wunderground v.1.13,2013-11-20 05:24:00,
2013-11-19 23:29:00,61.3,54.7,29.82,ENE,61,0.0,0.0,79,0.00,,,0.00,Wunderground v.1.13,2013-11-20 05:29:00,
2013-11-19 23:34:00,61.1,54.5,29.82,ENE,61,0.0,0.0,79,0.00,,,0.00,Wunderground v.1.13,2013-11-20 05:34:00,
2013-11-19 23:39:00,60.8,54.6,29.82,ENE,62,1.0,1.0,80,0.00,,,0.00,Wunderground v.1.13,2013-11-20 05:39:00,
2013-11-19 23:44:00,60.5,54.3,29.82,ENE,61,1.0,1.0,80,0.00,,,0.00,Wunderground v.1.13,2013-11-20 05:44:00,
2013-11-19 23:49:00,60.4,54.2,29.82,ENE,61,0.0,0.0,80,0.00,,,0.00,Wunderground v.1.13,2013-11-20 05:49:00,
2013-11-19 23:54:00,60.2,54.3,29.82,ENE,61,0.0,0.0,81,0.00,,,0.00,Wunderground v.1.13,2013-11-20 05:54:00,